Location: Seven Kings
(51.5667°N, 0.1000°E)
Time: 12:02:19
(UTC+00:00)

Cosmos 2082 - Pass Details

Date: 29 October 2020
Orbit: 832 x 857 km, 71.0° (Epoch: 24 November)

Event Time Altitude Azimuth Distance (km) Brightness Sun altitude
Rises 18:09:10 0° 329° (NNW) 3,437 7.3 -14.8°
Reaches altitude 10° 18:11:38 10° 330° (NNW) 2,499 6.5 -15.1°
Maximum altitude 18:17:24 89° 52° (NE) 865 3.7 -16.0°
Drops below altitude 10° 18:23:09 10° 151° (SSE) 2,485 5.9 -16.9°
Sets 18:25:35 0° 152° (SSE) 3,417 6.6 -17.3°
Enters shadow 18:25:38 - 152° (SSE) 3,433 6.6 -17.3°
